"2016-01-12 00:00:00",1277211,0.783,193.4,6.547,1.104,1.813,99.64262,-1.611,-0.315,39.37,0,109.8,13.31,-0.86,155.4
"2016-01-12 00:00:30",1277212,1.171,191,6.797,1.259,2.628,99.61915,-1.67,-0.321,39.37,0,109.8,13.31,-0.92,153.0
"2016-01-12 00:01:00",1277213,1.636,187.4,8.63,1.325,3.766,99.61263,-1.687,-0.334,39.62,0,109.7,13.31,-0.94,149.4
"2016-01-12 00:01:30",1277214,2.5,210,11.08,1.291,4.855,99.58746,-1.751,-0.321,39.89,0,109.8,13.31,-1.01,172.0
"2016-01-12 00:02:00",1277215,2.48,224.5,6.13,1.306,3.802,99.57301,-1.788,-0.428,39.47,0,109.7,13.31,-1.04,186.5
"2016-01-12 00:02:30",1277216,1.144,224,4.15,0.117,1.072,99.5552,-1.833,-0.628,38.43,0,109.7,13.36,-1.09,186.0
"2016-01-12 00:03:00",1277217,1.263,237.7,3.897,0.063,1.222,99.52522,-1.91,-0.725,37.33,0,109.7,13.36,-1.16,199.7
"2016-01-12 00:03:30",1277218,2.142,248.1,6.93,1.202,3.113,99.51221,-1.943,-0.642,37.07,0,109.7,13.32,-1.20,210.1
"2016-01-12 00:04:00",1277219,1.707,244,7.054,1.269,2.788,99.49044,-1.998,-0.68,36.91,0,109.7,13.32,-1.25,206.0
"2016-01-12 00:04:30",1277220,2.023,240.9,7.238,1.285,4.174,99.46443,-2.065,-0.62,37.01,0,109.7,13.33,-1.32,202.9
"2016-01-12 00:05:00",1277221,2.101,231.2,7.283,1.278,4.268,99.44746,-2.108,-0.698,37.51,0,109.7,13.33,-1.36,193.2
"2016-01-12 00:05:30",1277222,0.822,218.3,7.168,0.963,1.874,99.42483,-2.166,-0.845,37.73,0,109.7,13.33,-1.42,180.3
"2016-01-12 00:06:00",1277223,0.349,205.8,1.94,0.037,0.638,99.42537,-2.164,-0.994,37.62,0,109.7,13.37,-1.42,167.8
"2016-01-12 00:06:30",1277224,0.364,205.5,1.508,0.05,0.43,99.40723,-2.21,-1.058,37.65,0,109.7,13.38,-1.47,167.5
"2016-01-12 00:07:00",1277225,0.91,205.7,4.241,1.125,2.023,99.40296,-2.221,-1.001,38.2,0,109.7,13.34,-1.48,167.7
"2016-01-12 00:07:30",1277226,0.921,185,10.29,1.214,2.654,99.38058,-2.278,-0.985,39.51,0,109.7,13.34,-1.53,147.0
"2016-01-12 00:08:00",1277227,1.546,178.6,11.46,1.363,4.909,99.37688,-2.288,-1.072,39.89,0,109.7,13.34,-1.54,140.6
"2016-01-12 00:08:30",1277228,1.905,178.6,7.651,1.298,5.717,99.35652,-2.34,-0.961,39.91,0,109.7,13.34,-1.60,140.6
"2016-01-12 00:09:00",1277229,1.783,182.9,7.878,1.327,4.543,99.35365,-2.347,-1.009,39.98,0,109.7,13.34,-1.60,144.9
"2016-01-12 00:09:30",1277230,0.418,179.2,6.662,0.066,1.217,99.33894,-2.384,-1.271,39.84,0,109.7,13.39,-1.64,141.2
"2016-01-12 00:10:00",1277231,0.497,176.2,1.707,0.053,1.316,99.32111,-2.43,-1.286,39.83,0,109.7,13.39,-1.69,138.2
"2016-01-12 00:10:30",1277232,0.609,182.4,3.595,0.072,1.301,99.31432,-2.447,-1.326,39.79,0,109.7,13.38,-1.70,144.4
"2016-01-12 00:11:00",1277233,1.318,194.4,6.203,1.131,2.479,99.29282,-2.502,-1.254,39.66,0,109.7,13.35,-1.76,156.4
"2016-01-12 00:11:30",1277234,2.441,204.7,6.248,1.283,4.841,99.28688,-2.517,-1.121,39.61,0,109.7,13.35,-1.77,166.7
"2016-01-12 00:12:00",1277235,2.524,214.1,9.27,1.235,5.253,99.26821,-2.565,-1.152,39.5,0,109.7,13.35,-1.82,176.1
"2016-01-12 00:12:30",1277236,2.217,222.6,6.411,1.335,3.825,99.25322,-2.603,-1.241,39.47,0,109.7,13.35,-1.86,184.6
"2016-01-12 00:13:00",1277237,1.922,230.2,4.479,0.824,2.136,99.25151,-2.607,-1.366,39.41,0,109.6,13.35,-1.86,192.2
"2016-01-12 00:13:30",1277238,2.023,233.8,1.582,0.051,2.488,99.23762,-2.643,-1.48,39.07,0,109.6,13.39,-1.90,195.8
"2016-01-12 00:14:00",1277239,2.557,229.6,5.649,1.154,3.663,99.22994,-2.662,-1.39,39.45,0,109.6,13.35,-1.92,191.6
"2016-01-12 00:14:30",1277240,3.201,235,7.38,1.368,5.649,99.23274,-2.655,-1.323,39.61,0,109.6,13.35,-1.91,197.0
"2016-01-12 00:15:00",1277241,3.572,248.8,7.495,1.306,6.29,99.22168,-2.683,-1.328,39.85,0,109.6,13.35,-1.94,210.8
"2016-01-12 00:15:30",1277242,3.728,253.1,6.56,1.334,5.593,99.22903,-2.664,-1.337,39.75,0,109.6,13.35,-1.92,215.1
"2016-01-12 00:16:00",1277243,2.437,253.8,7.056,1.305,3.047,99.23523,-2.649,-1.435,39.72,0,109.6,13.35,-1.91,215.8
"2016-01-12 00:16:30",1277244,1.142,252.4,2.828,0.13,1.232,99.23209,-2.657,-1.583,39.69,0,109.6,13.39,-1.91,214.4
"2016-01-12 00:17:00",1277245,1.781,255.9,5.719,1.172,2.321,99.225,-2.675,-1.47,39.8,0,109.6,13.35,-1.93,217.9
"2016-01-12 00:17:30",1277246,2.373,257.6,7.839,1.394,3.925,99.21425,-2.702,-1.447,40.1,0,109.6,13.35,-1.96,219.6
"2016-01-12 00:18:00",1277247,1.177,255.9,4.911,0.912,2.123,99.21817,-2.692,-1.587,40.23,0,109.6,13.35,-1.95,217.9
"2016-01-12 00:18:30",1277248,2.364,265.1,7.118,1.316,4.524,99.21789,-2.693,-1.388,40.35,0,109.6,13.35,-1.95,227.1
"2016-01-12 00:19:00",1277249,2.135,263.3,6.954,1.348,4.52,99.21901,-2.69,-1.405,40.52,0,109.6,13.35,-1.95,225.3
"2016-01-12 00:19:30",1277250,0.393,257.4,5.749,0.548,1.683,99.21901,-2.69,-1.545,40.43,0,109.6,13.35,-1.95,219.4
"2016-01-12 00:20:00",1277251,-0.015,273.1,5.273,0.096,1.178,99.21391,-2.703,-1.627,40.54,0,109.6,13.4,-1.96,235.1
"2016-01-12 00:20:30",1277252,-0.038,278.9,13.39,0.663,1.577,99.20769,-2.719,-1.651,41,0,109.6,13.37,-1.98,240.9
"2016-01-12 00:21:00",1277253,0.501,301.9,8.87,1.211,2.049,99.1893,-2.766,-1.52,40.99,0,109.6,13.37,-2.02,263.9
"2016-01-12 00:21:30",1277254,0.447,318.9,4.767,1.194,1.317,99.18591,-2.774,-1.615,40.68,0,109.6,13.37,-2.03,280.9
"2016-01-12 00:22:00",1277255,-0.253,320.1,6.559,0.031,-0.08,99.18618,-2.774,-1.683,40.46,0,109.6,13.42,-2.03,282.1
"2016-01-12 00:22:30",1277256,-0.268,306.8,3.811,0.027,0.686,99.19011,-2.764,-1.684,40.31,0,109.6,13.42,-2.02,268.8
"2016-01-12 00:23:00",1277257,0.447,312.7,12.74,1.141,2.185,99.19517,-2.751,-1.625,40.32,0,109.6,13.37,-2.01,274.7
"2016-01-12 00:23:30",1277258,1.245,313.3,15.12,1.338,3.739,99.20214,-2.733,-1.467,40.45,0,109.6,13.37,-1.99,275.3
"2016-01-12 00:24:00",1277259,0.744,318.9,7.585,1.258,2.531,99.18401,-2.779,-1.565,40.3,0,109.6,13.37,-2.04,280.9
"2016-01-12 00:24:30",1277260,-0.222,299.3,8.99,0.03,0.583,99.17832,-2.794,-1.71,40.15,0,109.6,13.42,-2.05,261.3
"2016-01-12 00:25:00",1277261,-0.181,284.5,7.224,0.034,0.218,99.18198,-2.784,-1.738,40.34,0,109.6,13.42,-2.04,246.5
"2016-01-12 00:25:30",1277262,0.019,273.5,7.297,0.068,0.141,99.18224,-2.784,-1.743,40.47,0,109.6,13.42,-2.04,235.5
"2016-01-12 00:26:00",1277263,0.813,264.1,6.794,1.206,1.982,99.17346,-2.806,-1.642,40.39,0,109.6,13.38,-2.06,226.1
"2016-01-12 00:26:30",1277264,0.973,266.2,6.64,1.157,2.468,99.15223,-2.86,-1.639,40.17,0,109.6,13.38,-2.12,228.2
"2016-01-12 00:27:00",1277265,0.851,267.6,6.074,1.016,2.195,99.15081,-2.864,-1.721,39.95,0,109.6,13.38,-2.12,229.6
"2016-01-12 00:27:30",1277266,1.275,268.1,6.151,1.269,3.276,99.14713,-2.873,-1.612,40.05,0,109.6,13.38,-2.13,230.1
"2016-01-12 00:28:00",1277267,2.106,269.5,6.995,1.32,4.824,99.13015,-2.916,-1.589,40.04,0,109.6,13.38,-2.17,231.5
"2016-01-12 00:28:30",1277268,1.007,257.9,6.811,1.007,2.528,99.11684,-2.95,-1.713,39.98,0,109.6,13.38,-2.21,219.9
"2016-01-12 00:29:00",1277269,0.462,258.5,5.363,0.07,0.72,99.11599,-2.952,-1.853,40.1,0,109.5,13.42,-2.21,220.5
"2016-01-12 00:29:30",1277270,1.24,289.5,13.44,1.256,1.771,99.0925,-3.012,-1.817,40.39,0,109.5,13.38,-2.27,251.5
"2016-01-12 00:30:00",1277271,1.628,310.2,7.113,1.281,2.103,99.08288,-3.037,-1.705,40.38,0,109.5,13.38,-2.30,272.2
"2016-01-12 00:30:30",1277272,1.227,315.5,3.344,0.901,0.927,99.08288,-3.037,-1.882,40.01,0,109.5,13.38,-2.30,277.5
"2016-01-12 00:31:00",1277273,2.28,318,8.01,1.363,3.473,99.07466,-3.058,-1.759,39.9,0,109.5,13.38,-2.32,280.0
"2016-01-12 00:31:30",1277274,2.622,322.3,7.213,1.312,3.897,99.05172,-3.116,-1.751,39.87,0,109.5,13.38,-2.38,284.3
"2016-01-12 00:32:00",1277275,2.261,325.9,6.484,1.32,2.443,99.05396,-3.111,-1.876,39.68,0,109.5,13.38,-2.37,287.9
"2016-01-12 00:32:30",1277276,1.003,327.8,2.854,0.058,0.319,99.05618,-3.105,-1.999,39.51,0,109.5,13.42,-2.36,289.8
"2016-01-12 00:33:00",1277277,1.424,330,6.544,1.161,1.518,99.04709,-3.128,-1.977,39.52,0,109.5,13.38,-2.39,292.0
"2016-01-12 00:33:30",1277278,1.726,336.5,5.853,1.34,3.199,99.03826,-3.15,-1.859,39.71,0,109.5,13.38,-2.41,298.5
"2016-01-12 00:34:00",1277279,1.082,328.7,9.26,1.234,2.376,99.03596,-3.156,-1.958,39.71,0,109.5,13.39,-2.42,290.7
"2016-01-12 00:34:30",1277280,0.832,326.7,7.384,1.168,2.531,99.0348,-3.159,-1.907,39.95,0,109.5,13.39,-2.42,288.7
"2016-01-12 00:35:00",1277281,0.851,310.1,7.336,1.241,2,99.01951,-3.198,-1.994,40,0,109.5,13.39,-2.46,272.1
"2016-01-12 00:35:30",1277282,0.68,322.1,11.23,1.217,1.729,99.00816,-3.227,-1.981,40.1,0,109.5,13.39,-2.49,284.1
"2016-01-12 00:36:00",1277283,0.056,349.8,11.64,0.108,-0.397,99.01069,-3.221,-2.139,40.02,0,109.5,13.43,-2.48,311.8
"2016-01-12 00:36:30",1277284,0.119,6.853,8.04,0.074,-0.297,99.01009,-3.222,-2.153,39.99,0,109.5,13.43,-2.48,328.9
"2016-01-12 00:37:00",1277285,0.005,358,8.37,0.1,-0.262,98.99082,-3.271,-2.165,39.84,0,109.5,13.44,-2.53,320.0
"2016-01-12 00:37:30",1277286,0.806,347.9,11.33,1.169,1.686,98.98062,-3.297,-2.029,39.9,0,109.5,13.4,-2.56,309.9
"2016-01-12 00:38:00",1277287,1.882,351.7,17.3,1.239,3.955,98.98062,-3.297,-1.989,39.99,0,109.5,13.4,-2.56,313.7
"2016-01-12 00:38:30",1277288,0.875,324.2,11.52,1.284,2.129,98.96449,-3.338,-2.121,40.12,0,109.5,13.4,-2.60,286.2
"2016-01-12 00:39:00",1277289,-0.121,37.64,18.03,0.678,0.824,98.94693,-3.383,-2.176,40.14,0,109.5,13.4,-2.64,359.6
"2016-01-12 00:39:30",1277290,1.05,54.25,14.25,1.356,2.519,98.94666,-3.384,-2.14,40.01,0,109.5,13.4,-2.64,16.2
"2016-01-12 00:40:00",1277291,-0.247,62.08,15.4,0.064,0.928,98.9441,-3.39,-2.268,39.82,0,109.5,13.45,-2.65,24.1
"2016-01-12 00:40:30",1277292,-0.307,82.5,15.95,0.039,0.82,98.93108,-3.424,-2.316,39.79,0,109.5,13.45,-2.68,44.5
"2016-01-12 00:41:00",1277293,-0.264,30.88,24.78,0.074,-0.413,98.91352,-3.468,-2.331,39.79,0,109.5,13.45,-2.73,352.9
"2016-01-12 00:41:30",1277294,-0.212,29.01,8.46,0.075,-0.54,98.91267,-3.47,-2.359,39.84,0,109.5,13.45,-2.73,351.0
"2016-01-12 00:42:00",1277295,-0.124,35.33,8.73,0.088,-0.22,98.90672,-3.486,-2.363,39.91,0,109.5,13.46,-2.75,357.3
"2016-01-12 00:42:30",1277296,0.765,55.96,10.51,1.142,1.919,98.88969,-3.529,-2.3,40.13,0,109.5,13.41,-2.79,18.0
"2016-01-12 00:43:00",1277297,1.045,36.86,7.659,1.275,2.883,98.88821,-3.533,-2.241,40.41,0,109.5,13.41,-2.79,358.9
"2016-01-12 00:43:30",1277298,1.567,47.25,9.6,1.37,3.256,98.89012,-3.528,-2.268,40.57,0,109.5,13.41,-2.79,9.2
"2016-01-12 00:44:00",1277299,1.929,51.24,7.85,1.355,3.377,98.87367,-3.57,-2.288,40.78,0,109.5,13.41,-2.83,13.2
"2016-01-12 00:44:30",1277300,0.92,60.75,5.971,1.298,2.639,98.86461,-3.593,-2.318,41,0,109.5,13.41,-2.85,22.8
"2016-01-12 00:45:00",1277301,0.101,53.49,6.586,0.102,0.603,98.86063,-3.603,-2.484,41.04,0,109.5,13.46,-2.86,15.5
"2016-01-12 00:45:30",1277302,0.067,55.56,12.21,0.137,0.475,98.84331,-3.647,-2.505,41.19,0,109.5,13.46,-2.91,17.6
"2016-01-12 00:46:00",1277303,0.218,58.66,8.54,0.119,0.702,98.83508,-3.668,-2.533,41.3,0,109.5,13.46,-2.93,20.7
"2016-01-12 00:46:30",1277304,0.87,70.79,10.69,1.123,2.312,98.83619,-3.665,-2.445,41.59,0,109.5,13.42,-2.93,32.8
"2016-01-12 00:47:00",1277305,1.67,62.62,9.34,1.352,3.461,98.8226,-3.7,-2.405,41.75,0,109.5,13.42,-2.96,24.6
"2016-01-12 00:47:30",1277306,0.754,45.08,7.259,1.21,2.186,98.81095,-3.729,-2.475,41.84,0,109.5,13.42,-2.99,7.1
"2016-01-12 00:48:00",1277307,1.622,43.46,12.21,1.385,3.762,98.80725,-3.739,-2.393,41.96,0,109.5,13.42,-3.00,5.5
"2016-01-12 00:48:30",1277308,0.854,3.883,26.7,1.251,2.193,98.8027,-3.751,-2.502,41.96,0,109.5,13.42,-3.01,325.9
"2016-01-12 00:49:00",1277309,0.105,313.3,15.6,0.493,0.668,98.78484,-3.796,-2.648,41.8,0,109.5,13.46,-3.06,275.3
"2016-01-12 00:49:30",1277310,-0.007,243.3,26.86,0.144,0.958,98.77634,-3.818,-2.687,41.68,0,109.5,13.46,-3.08,205.3
"2016-01-12 00:50:00",1277311,0.529,206.2,21.75,1.162,2.029,98.77634,-3.818,-2.685,41.68,0,109.5,13.41,-3.08,168.2
"2016-01-12 00:50:30",1277312,1.58,175,11.91,1.235,3.85,98.7752,-3.821,-2.603,41.84,0,109.5,13.41,-3.08,137.0
"2016-01-12 00:51:00",1277313,2.423,154,10.5,1.296,5.011,98.76104,-3.857,-2.541,42.01,0,109.5,13.41,-3.12,116.0
"2016-01-12 00:51:30",1277314,1.19,142.2,10.85,1.197,3.56,98.74519,-3.897,-2.588,42.16,0,109.5,13.42,-3.16,104.2
"2016-01-12 00:52:00",1277315,1.698,164.8,10.77,1.427,4.317,98.74235,-3.904,-2.578,42.27,0,109.5,13.42,-3.17,126.8
"2016-01-12 00:52:30",1277316,0.635,154.7,12.65,0.48,1.333,98.74235,-3.904,-2.761,42.27,0,109.5,13.42,-3.17,116.7
"2016-01-12 00:53:00",1277317,0.685,169.8,2.775,0.136,1.36,98.74235,-3.904,-2.791,42.59,0,109.5,13.46,-3.17,131.8
"2016-01-12 00:53:30",1277318,1.058,175.4,2.607,0.142,1.551,98.74235,-3.904,-2.786,42.84,0,109.5,13.46,-3.17,137.4
"2016-01-12 00:54:00",1277319,2.467,186.8,8.29,1.345,5.276,98.74235,-3.904,-2.577,43,0,109.5,13.42,-3.17,148.8
"2016-01-12 00:54:30",1277320,2.677,188.5,7.994,1.286,5.745,98.74235,-3.904,-2.6,43.07,0,109.5,13.42,-3.17,150.5
"2016-01-12 00:55:00",1277321,3.025,195.2,8.81,1.287,5.417,98.74263,-3.903,-2.625,43.06,0,109.5,13.42,-3.17,157.2
"2016-01-12 00:55:30",1277322,2.218,181.7,8.22,1.357,3.995,98.74263,-3.903,-2.627,43.04,0,109.5,13.43,-3.17,143.7
"2016-01-12 00:56:00",1277323,1.65,167.8,4.875,0.992,2.492,98.74431,-3.899,-2.805,42.97,0,109.5,13.42,-3.16,129.8
"2016-01-12 00:56:30",1277324,1.123,173.9,7.815,0.1,1.778,98.74941,-3.886,-2.804,43.16,0,109.5,13.47,-3.15,135.9
"2016-01-12 00:57:00",1277325,1.993,183.1,10.2,1.317,3.655,98.77037,-3.833,-2.727,43.36,0,109.5,13.43,-3.09,145.1
"2016-01-12 00:57:30",1277326,2.803,185.8,7.901,1.357,5.449,98.78137,-3.805,-2.571,43.54,0,109.5,13.43,-3.07,147.8
"2016-01-12 00:58:00",1277327,2.961,192,8.54,1.324,5.208,98.78333,-3.8,-2.534,43.53,0,109.5,13.43,-3.06,154.0
"2016-01-12 00:58:30",1277328,1.939,187.4,6.868,1.292,4.67,98.78867,-3.786,-2.566,43.36,0,109.5,13.43,-3.05,149.4
"2016-01-12 00:59:00",1277329,1.484,222.5,6.812,1.173,2.993,98.82376,-3.697,-2.647,43.56,0,109.5,13.43,-2.96,184.5
"2016-01-12 00:59:30",1277330,0.653,239.9,10.47,0.231,1.458,98.85632,-3.614,-2.721,43.5,0,109.5,13.47,-2.87,201.9
"2016-01-12 01:00:00",1277331,0.035,206.1,33.68,0.183,1.631,98.86308,-3.597,-2.665,43.35,0,109.5,13.47,-2.86,168.1
"2016-01-12 01:00:30",1277332,1.363,138.7,24.3,1.372,3.198,98.86196,-3.6,-2.573,43.24,0,109.5,13.43,-2.86,100.7
"2016-01-12 01:01:00",1277333,2.145,151.5,16.27,1.399,5.116,98.87865,-3.557,-2.392,42.73,0,109.4,13.43,-2.82,113.5
"2016-01-12 01:01:30",1277334,2.283,200.9,22.69,1.379,5.31,98.93983,-3.401,-2.344,42.84,0,109.5,13.43,-2.66,162.9
"2016-01-12 01:02:00",1277335,2.4,204.6,9.39,1.386,4.836,99.00044,-3.247,-2.364,42.86,0,109.4,13.43,-2.51,166.6
"2016-01-12 01:02:30",1277336,1.757,182.7,7.053,1.203,3.408,99.00552,-3.234,-2.309,42.54,0,109.5,13.43,-2.49,144.7
"2016-01-12 01:03:00",1277337,0.742,190.2,12.82,0.127,1.7,99.02109,-3.194,-2.37,42.25,0,109.4,13.48,-2.45,152.2
"2016-01-12 01:03:30",1277338,0.878,221.9,7.067,0.061,1.462,99.06273,-3.088,-2.339,42.06,0,109.4,13.48,-2.35,183.9
"2016-01-12 01:04:00",1277339,2.758,231.7,7.434,1.324,4.726,99.07717,-3.051,-2.034,42.11,0,109.4,13.43,-2.31,193.7
"2016-01-12 01:04:30",1277340,2.285,213.2,18.76,1.358,5.1,99.07689,-3.052,-1.973,42.05,0,109.5,13.43,-2.31,175.2
"2016-01-12 01:05:00",1277341,1.754,198,8.56,1.315,4.95,99.07632,-3.054,-1.982,41.89,0,109.4,13.43,-2.31,160.0
"2016-01-12 01:05:30",1277342,2.215,225.8,9.02,1.252,4.026,99.07745,-3.051,-2.049,41.56,0,109.4,13.43,-2.31,187.8
"2016-01-12 01:06:00",1277343,1.284,222.2,4.65,1.205,2.93,99.07774,-3.05,-2.044,41.43,0,109.4,13.43,-2.31,184.2
"2016-01-12 01:06:30",1277344,0.198,216.5,9.05,0.082,1.74,99.07858,-3.048,-2.133,41.2,0,109.4,13.47,-2.31,178.5
"2016-01-12 01:07:00",1277345,0.28,228.8,13.08,0.817,2.49,99.08027,-3.043,-2.021,40.92,0,109.4,13.43,-2.30,190.8
"2016-01-12 01:07:30",1277346,1.606,260,7.991,1.236,4.22,99.08366,-3.035,-2.02,40.49,0,109.4,13.43,-2.29,222.0
"2016-01-12 01:08:00",1277347,1.798,265.5,9.74,1.325,5.04,99.08849,-3.023,-1.92,40.35,0,109.4,13.43,-2.28,227.5
"2016-01-12 01:08:30",1277348,1.659,269.3,17.6,1.438,3.987,99.09527,-3.005,-1.883,40.31,0,109.4,13.43,-2.26,231.3
"2016-01-12 01:09:00",1277349,1.373,266.6,14.46,1.186,2.617,99.0998,-2.994,-2.053,39.35,0,109.4,13.43,-2.25,228.6
"2016-01-12 01:09:30",1277350,1.501,279.7,13.13,1.24,3.283,99.11142,-2.964,-1.906,38.79,0,109.4,13.43,-2.22,241.7
"2016-01-12 01:10:00",1277351,1.421,273.4,8.42,1.284,3.507,99.1168,-2.95,-1.912,38.9,0,109.4,13.43,-2.21,235.4
"2016-01-12 01:10:30",1277352,0.796,302,12.31,0.888,2.066,99.11963,-2.943,-2.005,39.12,0,109.5,13.43,-2.20,264.0
"2016-01-12 01:11:00",1277353,1.82,347.3,14.26,1.521,3.991,99.12161,-2.938,-1.768,39.18,0,109.4,13.43,-2.20,309.3
"2016-01-12 01:11:30",1277354,1.607,322.8,7.026,0.742,2.037,99.12529,-2.929,-1.944,38.48,0,109.4,13.44,-2.19,284.8
"2016-01-12 01:12:00",1277355,1.784,327.1,11.35,1.293,3.507,99.13267,-2.91,-1.77,37.95,0,109.4,13.44,-2.17,289.1
"2016-01-12 01:12:30",1277356,1.4,349.8,9.4,1.173,2.854,99.15051,-2.865,-1.769,38.41,0,109.4,13.44,-2.12,311.8
"2016-01-12 01:13:00",1277357,2.68,345.2,12.18,1.335,4.438,99.15221,-2.86,-1.763,38.27,0,109.4,13.44,-2.12,307.2
"2016-01-12 01:13:30",1277358,1.643,343.9,15.57,1.101,3.087,99.15958,-2.841,-1.778,37.38,0,109.4,13.44,-2.10,305.9
"2016-01-12 01:14:00",1277359,1.571,5.365,20.23,1.382,4.271,99.18055,-2.788,-1.689,36.97,0,109.4,13.44,-2.05,327.4
"2016-01-12 01:14:30",1277360,0.673,339.7,12.08,0.443,1.408,99.18395,-2.779,-1.809,36.75,0,109.4,13.44,-2.04,301.7
"2016-01-12 01:15:00",1277361,0.35,354.4,14.94,0.311,1.446,99.18395,-2.779,-1.837,36.74,0,109.4,13.48,-2.04,316.4
"2016-01-12 01:15:30",1277362,1.422,346.4,17.17,1.044,1.87,99.18395,-2.779,-1.764,36.71,0,109.4,13.44,-2.04,308.4
"2016-01-12 01:16:00",1277363,2.253,350.8,20.84,1.194,4.324,99.18395,-2.779,-1.597,36.91,0,109.4,13.44,-2.04,312.8
"2016-01-12 01:16:30",1277364,1.762,13.65,27.78,1.469,4.291,99.18621,-2.774,-1.607,36.93,0,109.4,13.44,-2.03,335.6
"2016-01-12 01:17:00",1277365,1.546,30.07,19.9,1.283,3.476,99.18707,-2.771,-1.679,36.82,0,109.5,13.44,-2.03,352.1
"2016-01-12 01:17:30",1277366,2.649,3.584,18.32,1.496,3.958,99.19386,-2.754,-1.585,36.91,0,109.4,13.44,-2.01,325.6
"2016-01-12 01:18:00",1277367,1.261,10.61,16.47,1.212,2.117,99.2137,-2.704,-1.751,36.42,0,109.5,13.44,-1.96,332.6
"2016-01-12 01:18:30",1277368,1.535,355.2,13.43,0.621,1.514,99.21795,-2.693,-1.736,36.29,0,109.5,13.49,-1.95,317.2
"2016-01-12 01:19:00",1277369,1.989,12.76,21.96,1.411,3.353,99.21795,-2.693,-1.627,36.3,0,109.4,13.44,-1.95,334.8
"2016-01-12 01:19:30",1277370,2.743,12.04,18.66,1.485,4.978,99.21795,-2.693,-1.484,36.37,0,109.5,13.44,-1.95,334.0
"2016-01-12 01:20:00",1277371,2.982,22.2,16.97,1.358,5.349,99.21795,-2.693,-1.465,36.26,0,109.5,13.44,-1.95,344.2
"2016-01-12 01:20:30",1277372,2.082,21.48,17.71,1.474,4.435,99.22277,-2.68,-1.502,35.75,0,109.4,13.44,-1.94,343.5
"2016-01-12 01:21:00",1277373,1.881,14.82,10.72,1.163,3.118,99.23071,-2.66,-1.558,35.85,0,109.5,13.44,-1.92,336.8
"2016-01-12 01:21:30",1277374,1.328,27.61,7.048,0.317,1.694,99.23693,-2.644,-1.648,35.74,0,109.5,13.48,-1.90,349.6
"2016-01-12 01:22:00",1277375,1.084,32.5,4.197,0.288,1.784,99.24544,-2.623,-1.602,35.91,0,109.5,13.48,-1.88,354.5
"2016-01-12 01:22:30",1277376,2.749,36.4,6.985,1.361,5.777,99.25195,-2.606,-1.406,36.19,0,109.4,13.44,-1.86,358.4
"2016-01-12 01:23:00",1277377,2.867,28.12,11.37,1.295,5.635,99.25195,-2.606,-1.399,36.08,0,109.5,13.44,-1.86,350.1
"2016-01-12 01:23:30",1277378,3.042,28.34,10.81,1.253,5.713,99.25223,-2.605,-1.395,35.96,0,109.5,13.43,-1.86,350.3
"2016-01-12 01:24:00",1277379,2.244,29.29,10.91,1.315,3.466,99.25223,-2.605,-1.47,35.82,0,109.5,13.43,-1.86,351.3
"2016-01-12 01:24:30",1277380,1.522,26.69,8.98,0.479,1.975,99.25195,-2.606,-1.552,35.79,0,109.4,13.48,-1.86,348.7
"2016-01-12 01:25:00",1277381,1.307,31.55,4.194,0.198,1.954,99.25478,-2.599,-1.57,35.71,0,109.5,13.48,-1.86,353.5
"2016-01-12 01:25:30",1277382,2.153,31.53,8.84,1.304,4.391,99.26413,-2.575,-1.352,35.98,0,109.4,13.44,-1.83,353.5
"2016-01-12 01:26:00",1277383,2.536,33.47,8.42,1.333,5.366,99.27093,-2.558,-1.34,36.08,0,109.5,13.43,-1.81,355.5
"2016-01-12 01:26:30",1277384,2.418,24.25,10.72,1.317,5.359,99.27518,-2.547,-1.342,36.13,0,109.5,13.44,-1.80,346.2
"2016-01-12 01:27:00",1277385,2.283,18.05,11.7,1.462,4.848,99.28255,-2.528,-1.367,36.08,0,109.5,13.44,-1.78,340.0
"2016-01-12 01:27:30",1277386,0.92,359.1,10.4,0.4,1.86,99.28481,-2.522,-1.465,36.01,0,109.4,13.48,-1.78,321.1
"2016-01-12 01:28:00",1277387,0.809,10.69,18.8,0.277,1.61,99.28708,-2.517,-1.53,36,0,109.5,13.48,-1.77,332.7
"2016-01-12 01:28:30",1277388,0.722,352.3,14.58,0.37,1.694,99.28651,-2.518,-1.507,36.02,0,109.4,13.49,-1.77,314.3
"2016-01-12 01:29:00",1277389,2.432,357.8,11.66,1.526,3.967,99.2868,-2.517,-1.374,36.14,0,109.5,13.45,-1.77,319.8
"2016-01-12 01:29:30",1277390,3.774,351.7,12.84,1.327,5.967,99.28793,-2.514,-1.258,35.74,0,109.5,13.45,-1.77,313.7
"2016-01-12 01:30:00",1277391,4.169,351.5,11.98,1.365,6.149,99.29017,-2.509,-1.24,35.67,0,109.5,13.45,-1.77,313.5
"2016-01-12 01:30:30",1277392,2.961,347.3,19.9,1.238,3.914,99.2913,-2.506,-1.362,35.17,0,109.5,13.45,-1.76,309.3
"2016-01-12 01:31:00",1277393,4.971,339.9,6.71,0.966,4.434,99.29753,-2.49,-1.437,33.66,0,109.5,13.45,-1.75,301.9
"2016-01-12 01:31:30",1277394,3.643,350.3,13.32,1.206,3.914,99.31936,-2.434,-1.393,31.92,0,109.5,13.45,-1.69,312.3
"2016-01-12 01:32:00",1277395,4.59,342.1,20.69,1.437,6.51,99.3335,-2.398,-1.182,32.19,0,109.5,13.44,-1.65,304.1
"2016-01-12 01:32:30",1277396,3.701,356.6,11.49,1.304,5.995,99.36184,-2.326,-1.158,32.85,0,109.5,13.45,-1.58,318.6
"2016-01-12 01:33:00",1277397,4.178,347.5,12.15,1.26,4.761,99.37801,-2.285,-1.203,33.01,0,109.5,13.45,-1.54,309.5
"2016-01-12 01:33:30",1277398,4.918,359.2,20.49,1.376,5.672,99.39247,-2.248,-1.151,32.27,0,109.5,13.44,-1.50,321.2
"2016-01-12 01:34:00",1277399,4.368,333.3,14.51,0.614,3.362,99.41568,-2.189,-1.223,31.33,0,109.5,13.45,-1.44,295.3
"2016-01-12 01:34:30",1277400,5.031,346.7,16.55,1.405,5.285,99.42788,-2.158,-1.096,31.45,0,109.5,13.44,-1.41,308.7
"2016-01-12 01:35:00",1277401,5.215,349.5,13.33,1.576,6.22,99.4497,-2.102,-1.021,31.56,0,109.5,13.45,-1.36,311.5
"2016-01-12 01:35:30",1277402,7.322,342.5,7.625,1.513,6.705,99.46584,-2.061,-0.948,31.32,0,109.5,13.44,-1.32,304.5
"2016-01-12 01:36:00",1277403,7.004,343.7,7.454,1.348,6.279,99.48654,-2.008,-0.916,31.19,0,109.5,13.44,-1.26,305.7
"2016-01-12 01:36:30",1277404,6.948,341.8,9.08,1.416,5.728,99.49816,-1.979,-0.901,30.47,0,109.5,13.44,-1.23,303.8
"2016-01-12 01:37:00",1277405,6.431,329.9,12.26,1.605,6.334,99.52734,-1.904,-0.83,30.15,0,109.5,13.44,-1.16,291.9
"2016-01-12 01:37:30",1277406,5.884,336.8,7.291,1.403,5.626,99.54322,-1.864,-0.837,29.67,0,109.5,13.44,-1.12,298.8
"2016-01-12 01:38:00",1277407,6.181,328.2,7.437,1.403,5.213,99.56361,-1.812,-0.82,29.22,0,109.5,13.44,-1.07,290.2
"2016-01-12 01:38:30",1277408,7.605,332.9,7.752,1.554,6.85,99.59195,-1.74,-0.686,28.93,0,109.5,13.43,-0.99,294.9
"2016-01-12 01:39:00",1277409,5.877,335.7,10.45,1.743,6.203,99.61406,-1.683,-0.643,28.48,0,109.5,13.44,-0.94,297.7
"2016-01-12 01:39:30",1277410,6.358,337.3,8.36,1.477,6.649,99.63192,-1.638,-0.543,28.91,0,109.5,13.44,-0.89,299.3
"2016-01-12 01:40:00",1277411,5.589,330.4,7.333,1.587,5.542,99.65997,-1.566,-0.583,28.79,0,109.5,13.43,-0.82,292.4
"2016-01-12 01:40:30",1277412,5.558,330.3,7.786,1.288,5.419,99.67668,-1.524,-0.552,28.89,0,109.5,13.42,-0.78,292.3
"2016-01-12 01:41:00",1277413,5.452,333.4,10.28,1.773,4.865,99.6968,-1.472,-0.516,29.55,0,109.5,13.43,-0.73,295.4
"2016-01-12 01:41:30",1277414,6.164,329.9,9.72,1.399,6.189,99.71268,-1.432,-0.364,28.67,0,109.5,13.42,-0.69,291.9
"2016-01-12 01:42:00",1277415,6.277,323,8.25,1.303,6.297,99.72854,-1.392,-0.389,27.93,0,109.5,13.42,-0.64,285.0
"2016-01-12 01:42:30",1277416,7.489,329.2,6.685,1.355,7.231,99.7447,-1.35,-0.29,27.34,0,109.5,13.43,-0.60,291.2
"2016-01-12 01:43:00",1277417,6.645,331.4,8.28,1.472,6.937,99.76368,-1.302,-0.238,27.08,0,109.5,13.42,-0.55,293.4
"2016-01-12 01:43:30",1277418,6.048,339.8,7.81,1.299,5.895,99.78635,-1.244,-0.179,27.88,0,109.5,13.43,-0.50,301.8
"2016-01-12 01:44:00",1277419,5.205,339.3,6.614,1.473,5.329,99.7974,-1.216,-0.182,28.75,0,109.5,13.43,-0.47,301.3
"2016-01-12 01:44:30",1277420,5.657,336.6,8.63,1.52,5.755,99.81185,-1.179,-0.217,28.28,0,109.5,13.44,-0.43,298.6
"2016-01-12 01:45:00",1277421,5.237,324.9,6.049,1.315,5.186,99.83083,-1.131,-0.16,27.3,0,109.5,13.44,-0.38,286.9